Погода в Риге

Погода в Риге : погода сейчас, прогноз погоды и архив. Всё, что Вы хотите узнать о погоде в Риге!

Поиск расширенной информации на нашем сайте:

Другие новости

Новости СМИ2

Главная страница сайта

Новости сайта

03.07.2017

Напоминаем, что на нашем специализированном сайте Метеоцентр.Азия вы можете получить высокодетализированные автоматические прогнозы погоды по пунктам России, СНГ и мира в авиационном формате (включающие направление и скорость ветра, видимость, явления погоды, количество и форму облачности, нижнюю и верхнюю границу облачности).


Погода в Риге - сегодня

Время (UTC), дата Ветер
(°,м/с) 
Видим.   Явления Облачность Т
(°С)
Тd
(°С)
f(%) Тe
(°С)
Pmin
(гПа)
dP
(гПа)
Po
(мм)
O2
(г/м3)
Тmin Tmax R s Состояние
почвы
00 15.10.18 150 (ЮВ) н/о    н/о 
+12.3 +6.1 66 +12  1024.2  -0.4  765  294           
03 15.10.18 150 (ЮВ) н/о    н/о 
+10.3 +5 70 +10  1023.8  -0.4  767  296           
06 15.10.18 160 (Ю) н/о    н/о 
+9.4 +4.7 72 +9  1023.8  -0.1  767  297  +9.2         
09 15.10.18 150 (ЮВ) н/о    н/о 
+15 +5.7 54 +15  1024  0.3  767  291           
12 15.10.18 150 (ЮВ) н/о    н/о 
+17.9 +5.7 45 +18  1022.9  -1  764  288           
15 15.10.18 140 (ЮВ) н/о    н/о 
+16.9 +5.4 47 +17  1022.4  -0.5  766  289           
18 15.10.18 150 (ЮВ) н/о    н/о 
+14.2 +5.5 56 +14  1022.2  -0.3  766  292    +18.4       
21 15.10.18 150 (ЮВ) н/о    н/о 
+12.5 +5.3 61 +12  1021.8  -0.4  766  294           
00 16.10.18 150 (ЮВ) н/о    н/о 
+10.7 +5.6 71 +10  1021.6  -0.2  763  295           
03 16.10.18 140 (ЮВ) н/о    н/о 
+9.2 +5.5 78 +9  1021  -0.6  765  297           
06 16.10.18 140 (ЮВ) н/о    н/о 
+8.6 +5.1 79 +8  1021.1  765  297  +8.4         
09 16.10.18 170 (Ю) н/о    н/о 
+14.3 +6.3 59 +14  1021.7  0.7  766  292           
12 16.10.18 180 (Ю) н/о    н/о 
+18.2 +6.9 48 +19  1021.4  -0.2  763  287           
15 16.10.18 160 (Ю) н/о    н/о 
+16.1 +8.7 61 +16  1021.3  -0.1  765  289           
18 16.10.18 150 (ЮВ) н/о    н/о 
+13 +8 72 +13  1022.1  0.7  766  293    +18.9       
21 16.10.18 140 (ЮВ) н/о    н/о 
+11.1 +7.5 78 +11  1022.5  0.4  766  295           
00 17.10.18 130 (ЮВ) н/о    н/о 
+9.3 +7 86 +10  1022.5  764  296           
03 17.10.18 140 (ЮВ) н/о    н/о 
+8.9 +6.6 85 +9  1022.3  -0.3  766  297           
06 17.10.18 150 (ЮВ) н/о    н/о 
+7.9 +6.1 88 +7  1022.6  0.3  766  298  +7.9         
09 17.10.18 130 (ЮВ) н/о    н/о 
+13.2 +7.3 67 +14  1023  0.5  767  293           
12 17.10.18 160 (Ю) н/о    н/о 
+17.9 +7.3 50 +18  1022  -0.9  763  288           
15 17.10.18 140 (ЮВ) н/о    н/о 
+15.6 +8.7 63 +16  1022.1  766  290           
18 17.10.18 160 (Ю) н/о    н/о 
+12.3 +8.3 77 +13  1022.1  766  293    +18.2       
21 17.10.18 180 (Ю) н/о    н/о 
+10.8 +7.6 81 +11  1022.1  766  295           
00 18.10.18 140 (ЮВ) н/о    н/о 
+9.4 +7.9 90 +9  1021.4  -0.7  763  296           
Время (UTC), дата Ветер
(°,м/с) 
Видим.   Явления Облачность Т
(°С)
Тd
(°С)
f(%) Тe
(°С)
Pmin
(гПа)
dP
(гПа)
Po
(мм)
O2
(г/м3)
Тmin Tmax R s Состояние
почвы

Для получения пояснительной информации подведите курсор к названию столбца.

ПОГОДА в Риге - архив

Всё, что Вы хотите узнать о погоде в Риге - удобно и подробно!

Выберите нужную дату (начиная с 1 января 2015* года) и нажмите кнопку "Найти".
Будут отображены архивные сводки погоды по пункту Рига, начиная с указанной даты.


Отображать данные в формате CSV (для использования в таблицах Excel)


Внимание! Наш архив погоды предназначен исключительно для личного некоммерческого использования в познавательных целях. Если Вам необходимы официальные справки о состоянии погоды (для производственных, юридических, коммерческих и т.п. целей), обращайтесь в органы Росгидромета.

*Примечание: данная дата относится к архиву по метеостанциям СССР (Россия, СНГ, Балтия).
Архив по метеостанциям Зарубежной Европы и Азии (кроме Китая) хранится 10 дней, по другим регионам земного шара (Китай, Африка, Америка, Австралия, Океания) - 1 день.

Рига - район местоположения метеостанции


Название, широта, долгота, высота метеостанции:
Рига 57°ш. 24.1°д. 7 м над ур. моря [Латвия]

Дополнительная информация

В oтличие oт бoльшинства пoгoдных сайтoв мы публикуем пoдрoбную метеoинфoрмацию в детальнoм прoфессиoнальнoм фoрмате.

Характеристики температуры и влажнoсти вoздуха измеряются на высoте 2 м в тени вдали oт зданий и деревьев.
Скoрoсть ветра измеряется на высoте 10 м (на урoвне рoста челoвека скoрoсть ветра ниже в 1.5-2 раза). Если метеoстанция нахoдится в гoрoде или в лесу, тo скoрoсть ветра занижена на 2-4 м/с пo сравнению с oткрытым местoм. Скoрoсть ветра над акватoриями крупных рек и oзёр, а также на вершинах хoлмoв на 2-5 м/с выше, чем в oбычных услoвиях.
Атмoсфернoе давление в разных тoчках местнoсти мoжет значительнo oтличаться oт давления на метеoстанции, в зависимoсти oт услoвий рельефа (при пoдъёме на 10 м давление пoнижается примернo на 1 мм рт.ст.).